This demonstration page uses our WeatherBlox Daily Observations layout. Learn more.

Hourly Observations for June 19, 2015

Temp ( °F °C ) Dew Point ( °F °C ) Humidity (%) Winds ( mph kmh ) Pressure ( in mb ) Visibility ( mi km ) Precip ( " mm )
12:15 am 00:15 Clear 63 17 57 14 83 83 E 8 13 30.09 1019 10 16.09344 0 0
12:35 am 00:35 Clear 61 16 57 14 88 88 E 6 9 30.09 1019 10 16.09344 0 0
12:55 am 00:55 Clear 61 16 57 14 88 88 E 5 7 30.09 1019 10 16.09344 0 0
1:15 am 01:15 Clear 61 16 57 14 88 88 Calm 30.09 1019 10 16.09344 0 0
1:35 am 01:35 Clear 61 16 57 14 88 88 SSE 3 6 30.09 1019 10 16.09344 0 0
1:55 am 01:55 Clear 61 16 57 14 88 88 SSW 6 9 30.09 1019 10 16.09344 0 0
2:15 am 02:15 Clear 61 16 57 14 88 88 SSE 5 7 30.06 1018 10 16.09344 0 0
2:35 am 02:35 Clear 59 15 55 13 88 88 SE 5 7 30.06 1018 10 16.09344 0 0
2:55 am 02:55 Clear 57 14 55 13 94 94 ESE 5 7 30.06 1018 10 16.09344 0 0
3:15 am 03:15 Clear 59 15 55 13 88 88 SE 5 7 30.06 1018 10 16.09344 0 0
3:35 am 03:35 Clear 59 15 55 13 88 88 SE 6 9 30.06 1018 10 16.09344 0 0
3:55 am 03:55 Partly Cloudy 57 14 55 13 94 94 Calm 30.06 1018 7 11.265408 0 0
4:15 am 04:15 Mostly Cloudy 59 15 57 14 94 94 Calm 30.06 1018 7 11.265408 0 0
4:35 am 04:35 Cloudy 61 16 59 15 94 94 SE 5 7 30.03 1017 7 11.265408 0 0
4:55 am 04:55 Cloudy 59 15 57 14 94 94 S 3 6 30.03 1017 7 11.265408 0 0
5:15 am 05:15 Cloudy 61 16 59 15 94 94 Calm 30.03 1017 7 11.265408 0 0
5:35 am 05:35 Cloudy 61 16 59 15 94 94 SE 5 7 30.03 1017 7 11.265408 0 0
5:55 am 05:55 Cloudy with Mist and Fog 61 16 59 15 94 94 Calm 30.03 1017 5 8.04672 0 0
6:15 am 06:15 Cloudy with Mist and Fog 61 16 59 15 94 94 ESE 5 7 30.03 1017 5 8.04672 0 0
6:35 am 06:35 Cloudy with Mist and Fog 61 16 59 15 94 94 ESE 3 6 30.03 1017 5 8.04672 0 0
6:55 am 06:55 Cloudy 63 17 61 16 94 94 Calm 30 1016 7 11.265408 0 0
7:15 am 07:15 Cloudy 63 17 61 16 94 94 ESE 5 7 30 1016 7 11.265408 0 0
7:35 am 07:35 Cloudy 63 17 61 16 94 94 ESE 6 9 30 1016 7 11.265408 0 0
7:55 am 07:55 Cloudy with Mist and Fog 63 17 61 16 94 94 SE 7 11 30 1016 4 6.437376 0 0
8:15 am 08:15 Cloudy 64 18 61 16 88 88 SSE 8 13 30 1016 10 16.09344 0 0
8:35 am 08:35 Cloudy 64 18 61 16 88 88 SSE 9 15 30 1016 10 16.09344 0 0
8:55 am 08:55 Cloudy 64 18 61 16 88 88 S 9 15 30 1016 10 16.09344 0 0
9:15 am 09:15 Cloudy 66 19 61 16 83 83 S 10 17 30 1016 10 16.09344 0 0
9:35 am 09:35 Cloudy 66 19 63 17 88 88 S 9 15 30 1016 10 16.09344 0 0
9:55 am 09:55 Cloudy 68 20 63 17 83 83 SSE 9 15 30 1016 7 11.265408 0 0
10:15 am 10:15 Cloudy 70 21 64 18 83 83 SSE 13 20 29.97 1015 10 16.09344 0 0
10:35 am 10:35 Cloudy 70 21 64 18 83 83 SSE 10 17 29.97 1015 10 16.09344 0 0
10:55 am 10:55 Cloudy 72 22 64 18 78 78 S 13 20 29.97 1015 10 16.09344 0 0
11:15 am 11:15 Cloudy 72 22 64 18 78 78 S 14 22 29.94 1014 10 16.09344 0 0
11:35 am 11:35 Cloudy 72 22 64 18 78 78 S 13 20 29.94 1014 10 16.09344 0 0
11:55 am 11:55 Mostly Cloudy 73 23 64 18 74 74 S 14 22 29.94 1014 10 16.09344 0 0
12:15 pm 12:15 Mostly Cloudy 73 23 64 18 74 74 S 13 20 29.94 1014 10 16.09344 0 0
12:35 pm 12:35 Mostly Cloudy 75 24 64 18 69 69 SSE 13 20 29.91 1013 10 16.09344 0 0
12:55 pm 12:55 Mostly Cloudy 75 24 64 18 69 69 SSE 12 19 29.88 1012 10 16.09344 0 0
1:15 pm 13:15 Mostly Cloudy 75 24 64 18 69 69 S 9 15 29.88 1012 10 16.09344 0 0
1:35 pm 13:35 Partly Cloudy 77 25 66 19 69 69 S 14 22 29.88 1012 10 16.09344 0 0
1:55 pm 13:55 Partly Cloudy 77 25 66 19 69 69 SSE 10 17 29.85 1011 10 16.09344 0 0
2:15 pm 14:15 Partly Cloudy 79 26 66 19 65 65 SSE 13 20 29.85 1011 10 16.09344 0 0
2:35 pm 14:35 Sunny 79 26 66 19 65 65 S 14 22 29.85 1011 10 16.09344 0 0
2:55 pm 14:55 Sunny 79 26 66 19 65 65 S 17 28 29.83 1010 10 16.09344 0 0
3:15 pm 15:15 Sunny 81 27 66 19 62 62 SSE 16 26 29.8 1009 10 16.09344 0 0
3:35 pm 15:35 Sunny 81 27 68 20 66 66 SSE 16 26 29.8 1009 10 16.09344 0 0
3:55 pm 15:55 Partly Cloudy 82 28 66 19 58 58 SSE 14 22 29.77 1008 10 16.09344 0 0
4:15 pm 16:15 Sunny 82 28 66 19 58 58 SSE 17 28 29.77 1008 10 16.09344 0 0
4:35 pm 16:35 Sunny 82 28 66 19 58 58 SSE 16 26 29.77 1008 10 16.09344 0 0
4:55 pm 16:55 Sunny 82 28 66 19 58 58 SSE 21 33 29.74 1007 10 16.09344 0 0
5:15 pm 17:15 Sunny 82 28 66 19 58 58 SSE 16 26 29.74 1007 10 16.09344 0 0
5:35 pm 17:35 Sunny 84 29 66 19 55 55 SSE 21 33 29.74 1007 10 16.09344 0 0
5:55 pm 17:55 Sunny 84 29 66 19 55 55 S 18 30 29.68 1005 10 16.09344 0 0
6:15 pm 18:15 Sunny 84 29 66 19 55 55 S 17 28 29.68 1005 10 16.09344 0 0
6:35 pm 18:35 Sunny 84 29 66 19 55 55 S 21 33 29.68 1005 10 16.09344 0 0
6:55 pm 18:55 undefined 84 29 66 19 55 55 SSE 17 28 29.65 1004 10 16.09344 0 0
7:15 pm 19:15 Sunny 84 29 66 19 55 55 SSE 17 28 29.65 1004 10 16.09344 0 0
7:35 pm 19:35 Sunny 82 28 66 19 58 58 SSE 17 28 29.68 1005 10 16.09344 0 0
7:55 pm 19:55 Sunny 82 28 68 20 62 62 SSE 14 22 29.68 1005 10 16.09344 0 0
8:15 pm 20:15 Sunny 81 27 68 20 66 66 SSE 13 20 29.68 1005 10 16.09344 0 0
8:35 pm 20:35 Sunny 81 27 68 20 66 66 SSE 14 22 29.68 1005 10 16.09344 0 0
8:55 pm 20:55 Sunny 79 26 68 20 70 70 SSE 13 20 29.68 1005 10 16.09344 0 0
9:15 pm 21:15 Clear 77 25 68 20 74 74 SSE 13 20 29.65 1004 10 16.09344 0 0
9:35 pm 21:35 Clear 77 25 68 20 74 74 SE 13 20 29.65 1004 10 16.09344 0 0
9:55 pm 21:55 Clear 77 25 68 20 74 74 SSE 13 20 29.65 1004 10 16.09344 0 0
10:15 pm 22:15 Clear 75 24 68 20 78 78 SSE 14 22 29.71 1006 10 16.09344 0 0
10:35 pm 22:35 Clear 75 24 68 20 78 78 SSE 14 22 29.71 1006 10 16.09344 0 0
10:55 pm 22:55 Clear 75 24 68 20 78 78 SSE 14 22 29.71 1006 10 16.09344 0 0
11:15 pm 23:15 Clear 75 24 68 20 78 78 SSE 13 20 29.71 1006 10 16.09344 0 0
11:35 pm 23:35 Clear 75 24 68 20 78 78 SSE 12 19 29.68 1005 10 16.09344 0 0
11:55 pm 23:55 Clear 75 24 68 20 78 78 SSE 13 20 29.68 1005 10 16.09344 0 0

Powered by AerisWeather